Location: *
(51.8167°N, 12.5000°E)
Time: 16:33:31
(UTC+00:00)

Cosmos 1850 Rocket - Pass Details

Date: 16 September 2019
Orbit: 755 x 785 km, 74.0° (Epoch: 17 October)

Event Time Altitude Azimuth Distance (km) Brightness Sun altitude
Rises 20:47:06 0° 332° (NNW) 3,226 8.4 -28.4°
Reaches altitude 10° 20:49:30 10° 329° (NNW) 2,295 7.4 -28.6°
Enters shadow 20:54:09 57° 275° (W) 887 4.4 -29.1°
